timestamp,surface_pressure_avg,surface_temp_avg,battery_voltage,lat,long
2021-11-05 00:09:00+00:00,351.8763,9.7,12.65,47.84626,-54.09684
2021-11-05 00:19:00+00:00,350.0179,9.7,12.65,47.84626,-54.09684
2021-11-05 00:29:00+00:00,337.7046,9.69,12.65,47.84626,-54.09684
2021-11-05 00:39:00+00:00,332.7614,9.7,12.65,47.84626,-54.09684
2021-11-05 00:49:00+00:00,333.528,9.7,12.65,47.84626,-54.09684
2021-11-05 00:59:00+00:00,329.0696,9.7,12.65,47.84626,-54.09684
2021-11-05 01:09:00+00:00,320.4897,9.7,12.65,47.84626,-54.09684
2021-11-05 01:19:00+00:00,321.9763,9.73,12.65,47.84626,-54.09684
2021-11-05 01:29:00+00:00,323.283,9.7,12.65,47.84626,-54.09684
2021-11-05 01:39:00+00:00,310.4014,9.72,12.65,47.84626,-54.09684
2021-11-05 01:49:00+00:00,297.428,9.78,12.65,47.84626,-54.09684
2021-11-05 01:59:00+00:00,296.4614,9.79,12.65,47.84626,-54.09684
2021-11-05 02:09:00+00:00,288.3447,9.79,12.65,47.84626,-54.09684
2021-11-05 02:19:00+00:00,271.1964,9.79,12.65,47.84626,-54.09684
2021-11-05 02:29:00+00:00,256.8897,9.8,12.65,47.84626,-54.09684
2021-11-05 02:39:00+00:00,255.4047,9.8,12.65,47.84626,-54.09684
2021-11-05 02:49:00+00:00,248.3697,9.8,12.65,47.84626,-54.09684
2021-11-05 02:59:00+00:00,237.0464,9.8,12.65,47.84626,-54.09684
2021-11-05 03:09:00+00:00,224.0064,9.79,12.65,47.84626,-54.09684
2021-11-05 03:19:00+00:00,216.0665,9.48,12.65,47.84626,-54.09684
2021-11-05 03:29:00+00:00,208.2865,9.1,12.65,47.84626,-54.09684
2021-11-05 03:39:00+00:00,194.8631,8.9,12.65,47.84626,-54.09684
2021-11-05 03:49:00+00:00,186.1982,8.98,12.65,47.84626,-54.09684
2021-11-05 03:59:00+00:00,180.5315,9.1,12.65,47.84626,-54.09684
2021-11-05 04:09:00+00:00,172.7431,8.9,12.65,47.84626,-54.09684
2021-11-05 04:19:00+00:00,172.1131,8.7,12.65,47.84626,-54.09684
2021-11-05 04:29:00+00:00,171.0732,8.72,12.65,47.84626,-54.09684
2021-11-05 04:39:00+00:00,163.5932,8.7,12.65,47.84626,-54.09684
2021-11-05 04:49:00+00:00,163.2665,8.68,12.65,47.84626,-54.09684
2021-11-05 04:59:00+00:00,168.3281,8.88,12.65,47.84626,-54.09684
2021-11-05 05:09:00+00:00,163.7698,9.0,12.65,47.84626,-54.09684
2021-11-05 05:19:00+00:00,158.2665,8.7,12.65,47.84626,-54.09684
2021-11-05 05:29:00+00:00,163.4465,8.6,12.65,47.84626,-54.09684
2021-11-05 05:39:00+00:00,171.0848,8.63,12.65,47.84626,-54.09684
2021-11-05 05:49:00+00:00,168.2915,8.81,12.65,47.84626,-54.09684
2021-11-05 05:59:00+00:00,168.7982,8.97,12.65,47.84626,-54.09684
2021-11-05 06:09:00+00:00,181.8098,9.34,12.65,47.84626,-54.09684
2021-11-05 06:19:00+00:00,189.0232,9.6,12.57,47.84626,-54.09684
2021-11-05 06:29:00+00:00,187.6764,9.7,12.57,47.84626,-54.09684
2021-11-05 06:39:00+00:00,192.1031,9.7,12.57,47.84626,-54.09684
2021-11-05 06:49:00+00:00,200.0864,9.7,12.57,47.84626,-54.09684
2021-11-05 06:59:00+00:00,202.9331,9.7,12.57,47.84626,-54.09684
2021-11-05 07:09:00+00:00,207.0548,9.7,12.57,47.84626,-54.09684
2021-11-05 07:19:00+00:00,217.2097,9.7,12.57,47.84626,-54.09684
2021-11-05 07:29:00+00:00,222.4281,9.71,12.57,47.84626,-54.09684
2021-11-05 07:39:00+00:00,226.1281,9.74,12.57,47.84626,-54.09684
2021-11-05 07:49:00+00:00,235.9614,9.75,12.57,47.84626,-54.09684
2021-11-05 07:59:00+00:00,245.1131,9.76,12.57,47.84626,-54.09684
2021-11-05 08:09:00+00:00,247.2081,9.77,12.57,47.84626,-54.09684
2021-11-05 08:19:00+00:00,253.3047,9.79,12.57,47.84626,-54.09684
2021-11-05 08:29:00+00:00,260.0764,9.79,12.57,47.84626,-54.09684
2021-11-05 08:39:00+00:00,263.1014,9.8,12.57,47.84626,-54.09684
2021-11-05 08:49:00+00:00,267.7897,9.79,12.57,47.84626,-54.09684
2021-11-05 08:59:00+00:00,279.8264,9.7,12.57,47.84626,-54.09684
2021-11-05 09:09:00+00:00,291.3547,9.6,12.57,47.84626,-54.09684
2021-11-05 09:19:00+00:00,298.2747,9.7,12.57,47.84626,-54.09684
2021-11-05 09:29:00+00:00,308.1313,9.7,12.57,47.84626,-54.09684
2021-11-05 09:39:00+00:00,323.473,9.69,12.57,47.84626,-54.09684
2021-11-05 09:49:00+00:00,331.4264,9.69,12.57,47.84626,-54.09684
2021-11-05 09:59:00+00:00,341.468,9.7,12.57,47.84626,-54.09684
2021-11-05 10:09:00+00:00,350.0146,9.7,12.57,47.84626,-54.09684
2021-11-05 10:19:00+00:00,358.6496,9.79,12.57,47.84626,-54.09684
2021-11-05 10:29:00+00:00,366.4613,9.8,12.57,47.84626,-54.09684
2021-11-05 10:39:00+00:00,375.6496,9.8,12.57,47.84626,-54.09684
2021-11-05 10:49:00+00:00,380.8529,9.79,12.57,47.84626,-54.09684
2021-11-05 10:59:00+00:00,386.4612,9.7,12.57,47.84626,-54.09684
2021-11-05 11:09:00+00:00,396.9813,9.7,12.57,47.84626,-54.09684
2021-11-05 11:19:00+00:00,398.0347,9.7,12.73,47.84626,-54.09684
2021-11-05 11:29:00+00:00,400.1428,9.78,12.73,47.84626,-54.09684
2021-11-05 11:39:00+00:00,405.1013,9.8,12.73,47.84626,-54.09684
2021-11-05 11:49:00+00:00,405.858,9.8,12.73,47.84626,-54.09684
2021-11-05 11:59:00+00:00,399.4113,9.8,12.73,47.84626,-54.09684
2021-11-05 12:09:00+00:00,398.5063,9.8,12.73,47.84626,-54.09684
2021-11-05 12:19:00+00:00,400.2479,9.8,14.16,47.84626,-54.09684
2021-11-05 12:29:00+00:00,387.7262,9.8,14.16,47.84626,-54.09684
2021-11-05 12:39:00+00:00,377.9529,9.8,14.16,47.84626,-54.09684
2021-11-05 12:49:00+00:00,383.0162,9.8,14.16,47.84626,-54.09684
2021-11-05 12:59:00+00:00,377.5846,9.8,14.16,47.84626,-54.09684
2021-11-05 13:09:00+00:00,361.2796,9.55,14.16,47.84626,-54.09684
2021-11-05 13:19:01+00:00,360.5847,9.51,14.32,47.84626,-54.09684
2021-11-05 13:29:01+00:00,362.5179,9.59,14.32,47.84626,-54.09684
2021-11-05 13:39:01+00:00,344.858,9.4,14.32,47.84626,-54.09684
2021-11-05 13:49:01+00:00,330.0013,9.0,14.32,47.84626,-54.09684
2021-11-05 13:59:01+00:00,334.8796,9.1,14.32,47.84626,-54.09684
2021-11-05 14:09:01+00:00,326.7996,9.36,14.32,47.84626,-54.09684
2021-11-05 14:19:00+00:00,310.6563,9.31,14.4,47.84626,-54.09684
2021-11-05 14:29:00+00:00,303.7413,9.0,14.4,47.84626,-54.09684
2021-11-05 14:39:00+00:00,297.6381,9.3,14.4,47.84626,-54.09684
2021-11-05 14:49:00+00:00,283.4381,9.3,14.4,47.84626,-54.09684
2021-11-05 14:59:00+00:00,269.1031,8.8,14.4,47.84626,-54.09684
2021-11-05 15:09:00+00:00,262.938,8.7,14.4,47.84626,-54.09684
2021-11-05 15:19:00+00:00,250.4081,8.7,14.16,47.84626,-54.09684
2021-11-05 15:29:00+00:00,238.5247,8.68,14.16,47.84626,-54.09684
2021-11-05 15:39:00+00:00,233.9297,8.71,14.16,47.84626,-54.09684
2021-11-05 15:49:00+00:00,232.7365,8.8,14.16,47.84626,-54.09684
2021-11-05 15:59:00+00:00,216.9447,8.8,14.16,47.84626,-54.09684
2021-11-05 16:09:00+00:00,199.2065,8.8,14.16,47.84626,-54.09684
2021-11-05 16:19:00+00:00,195.0081,8.83,14.0,47.84626,-54.09684
2021-11-05 16:29:00+00:00,186.1765,8.89,14.0,47.84626,-54.09684
2021-11-05 16:39:00+00:00,167.7232,8.9,14.0,47.84626,-54.09684
2021-11-05 16:49:00+00:00,165.6282,8.9,14.0,47.84626,-54.09684
2021-11-05 16:59:00+00:00,171.8932,8.99,14.0,47.84626,-54.09684
2021-11-05 17:09:00+00:00,161.8431,9.0,14.0,47.84626,-54.09684
2021-11-05 17:19:00+00:00,152.2365,9.0,13.84,47.84626,-54.09684
2021-11-05 17:29:00+00:00,157.2798,9.06,13.84,47.84626,-54.09684
2021-11-05 17:39:00+00:00,163.4081,9.1,13.84,47.84626,-54.09684
2021-11-05 17:49:00+00:00,156.0882,9.1,13.84,47.84626,-54.09684
2021-11-05 17:59:00+00:00,153.4365,9.17,13.84,47.84626,-54.09684
2021-11-05 18:09:00+00:00,164.2682,9.2,13.84,47.84626,-54.09684
2021-11-05 18:19:01+00:00,164.9132,9.2,13.6,47.84626,-54.09684
2021-11-05 18:29:01+00:00,158.0215,9.24,13.6,47.84626,-54.09684
2021-11-05 18:39:01+00:00,161.5182,9.27,13.6,47.84626,-54.09684
2021-11-05 18:49:01+00:00,168.1031,9.29,13.6,47.84626,-54.09684
2021-11-05 18:59:01+00:00,169.4632,9.3,13.6,47.84626,-54.09684
2021-11-05 19:09:01+00:00,173.0931,9.3,13.6,47.84626,-54.09684
2021-11-05 19:19:00+00:00,183.6431,9.3,13.29,47.84626,-54.09684
2021-11-05 19:29:00+00:00,193.4798,9.3,13.29,47.84626,-54.09684
2021-11-05 19:39:00+00:00,194.4298,9.3,13.29,47.84626,-54.09684
2021-11-05 19:49:00+00:00,197.6998,9.3,13.29,47.84626,-54.09684
2021-11-05 19:59:00+00:00,204.8214,9.3,13.29,47.84626,-54.09684
2021-11-05 20:09:00+00:00,212.0965,9.3,13.29,47.84626,-54.09684
2021-11-05 20:19:00+00:00,213.2765,9.3,12.97,47.84626,-54.09684
2021-11-05 20:29:00+00:00,212.8548,9.3,12.97,47.84626,-54.09684
2021-11-05 20:39:00+00:00,223.7648,9.29,12.97,47.84626,-54.09684
2021-11-05 20:49:00+00:00,234.9964,9.3,12.97,47.84626,-54.09684
2021-11-05 20:59:00+00:00,238.8514,9.3,12.97,47.84626,-54.09684
2021-11-05 21:09:00+00:00,244.9964,9.2,12.97,47.84626,-54.09684
2021-11-05 21:19:01+00:00,256.6998,9.27,12.73,47.84626,-54.09684
2021-11-05 21:29:01+00:00,266.4264,9.3,12.73,47.84626,-54.09684
2021-11-05 21:39:01+00:00,269.3781,9.4,12.73,47.84626,-54.09684
2021-11-05 21:49:01+00:00,280.8514,9.47,12.73,47.84626,-54.09684
2021-11-05 21:59:01+00:00,294.938,9.4,12.73,47.84626,-54.09684
2021-11-05 22:09:01+00:00,305.0546,9.4,12.73,47.84626,-54.09684
2021-11-05 22:19:00+00:00,310.8464,9.48,12.65,47.84626,-54.09684
2021-11-05 22:29:00+00:00,322.9996,9.5,12.65,47.84626,-54.09684
2021-11-05 22:39:00+00:00,331.593,9.5,12.65,47.84626,-54.09684
2021-11-05 22:49:00+00:00,334.3646,9.59,12.65,47.84626,-54.09684
2021-11-05 22:59:00+00:00,334.733,9.36,12.65,47.84626,-54.09684
2021-11-05 23:09:00+00:00,341.7646,9.1,12.65,47.84626,-54.09684
2021-11-05 23:19:00+00:00,353.3297,9.24,12.65,47.84626,-54.09684
2021-11-05 23:29:00+00:00,353.32300000000015,9.0,12.65,47.84626,-54.09684
2021-11-05 23:39:00+00:00,355.9896,8.9,12.65,47.84626,-54.09684
2021-11-05 23:49:00+00:00,367.0613,8.9,12.65,47.84626,-54.09684
2021-11-05 23:59:00+00:00,368.6363,8.9,12.65,47.84626,-54.09684
